COSMOS 2463

Last updated on Sat Sep 05 2026 00:03:35 GMT+0000 (Coordinated Universal Time)

1 36519U 10017A 26247.28382036 .00000053 00000+0 42827-4 0 9990 2 36519 82.9631 191.5924 0034662 270.9020 255.8077 13.71669667818774
UTC large
Height (km)
Speed (km/s)
/
Latitude / Longitude
Inclination (degrees)
Orbital Period (minutes)
Azimuth
Elevation
Range (km)
Doppler Factor

Next 0 passes for location: London (51.5072 / 0.1276)

No passes found over London.
COSMOS 2463